Simultaneous Nadir Overpasses (SNOs) Predictions

Prediction of SNOs between NOAA-19 and TERRA Satellite Orbit:

Table of predicted SNOs for the next 14.0 days since TLE Epoch: 3/22/2014
Index Date (NOAA-19) Time (NOAA-19) Lat,Lon (NOAA-19) SZA (NOAA-19 ) Date (TERRA) Time (TERRA) Lat,Lon (TERRA) SZA (TERRA ) Distance(km) Time Diff (sec)
1 03/22/2014 18:29:17 -70.31, 83.68 110.62 03/22/2014 18:29:33 -70.29, 83.74 110.64 3.27 16
2 03/22/2014 19:20:12 70.14,-108.80 69.21 03/22/2014 19:19:01 70.13,-108.84 69.20 1.83 71
3 03/24/2014 23:13:15 -70.30, 12.73 111.49 03/24/2014 23:13:53 -70.32, 12.70 111.48 2.39 38
4 03/25/2014 00:04:11 70.20,-179.85 68.40 03/25/2014 00:03:20 70.22,-179.80 68.41 2.88 51
5 03/27/2014 03:57:14 -70.36, -58.33 112.30 03/27/2014 03:58:13 -70.33, -58.37 112.33 3.28 59
6 03/27/2014 04:48:09 70.21, 109.16 67.55 03/27/2014 04:47:40 70.23, 109.13 67.56 1.82 29
7 03/29/2014 08:41:17 -70.64,-129.76 112.87 03/29/2014 08:42:29 -70.54,-129.13 112.97 25.71 72
8 03/29/2014 09:32:08 70.29, 38.06 66.77 03/29/2014 09:31:59 70.27, 38.12 66.75 3.27 9
9 03/31/2014 14:16:05 70.29, -32.89 65.91 03/31/2014 14:16:18 70.30, -32.92 65.92 1.92 13
10 03/31/2014 15:07:04 -69.91, 134.92 114.48 03/31/2014 15:05:52 -69.98, 134.25 114.42 26.81 72
11 04/02/2014 19:00:03 70.34,-103.95 65.12 04/02/2014 19:00:36 70.36,-103.91 65.14 2.78 33
12 04/02/2014 19:51:07 -70.23, 63.46 115.01 04/02/2014 19:50:07 -70.21, 63.50 115.03 2.94 60
13 04/04/2014 23:44:00 70.36,-174.95 64.30 04/04/2014 23:44:55 70.35,-175.00 64.29 2.13 55
14 04/05/2014 00:35:04 -70.25, -7.54 115.82 04/05/2014 00:34:25 -70.25, -7.51 115.83 1.29 39




NCC Satellite Simultaneous Nadir Overpasses (SNOs) Prediction Service
